LA METEO DE GRANDFRESNOY - OISE - (60) - ALT.75 m
Donnes mto: Actuelle lundi, 28/05/2018 05:01
Date Horaire Temp. E. Hum. E. P.atmo. Pluie Vent Direction Direction Ensoleilleme Horaire Temp Ev.Tr. UV Ray;solaire P. de rose Temp au vent Rafales Rception
28/05/2018 05:01 17,9 C 95 % 1015,9 hPa 0,0 mm 0,0 km/h (0 Bft) E-SE 104 0 min 0 min 0,000 mm 0,0 UV-I 0 W/m 17,1 C 17,9 C 0,0 km/h (0 Bft) 100,00 %
28/05/2018 05:00 17,9 C 95 % 1015,9 hPa 0,0 mm 0,0 km/h (0 Bft) E-SE 104 0 min 0 min 0,000 mm 0,0 UV-I 0 W/m 17,1 C 17,9 C 0,0 km/h (0 Bft) 100,00 %
28/05/2018 04:59 17,9 C 95 % 1015,9 hPa 0,0 mm 0,0 km/h (0 Bft) E-SE 104 0 min 0 min 0,000 mm 0,0 UV-I 0 W/m 17,1 C 17,9 C 0,0 km/h (0 Bft) 96,15 %
28/05/2018 04:58 17,9 C 95 % 1016,0 hPa 0,0 mm 0,0 km/h (0 Bft) E-SE 104 0 min 0 min 0,000 mm 0,0 UV-I 0 W/m 17,1 C 17,9 C 0,0 km/h (0 Bft) 100,00 %
28/05/2018 04:57 17,9 C 95 % 1016,0 hPa 0,0 mm 0,0 km/h (0 Bft) E-SE 104 0 min 0 min 0,000 mm 0,0 UV-I 0 W/m 17,1 C 17,9 C 0,0 km/h (0 Bft) 100,00 %
28/05/2018 04:56 17,9 C 95 % 1016,1 hPa 0,0 mm 0,0 km/h (0 Bft) E-SE 104 0 min 0 min 0,000 mm 0,0 UV-I 0 W/m 17,1 C 17,9 C 0,0 km/h (0 Bft) 100,00 %
28/05/2018 04:55 17,9 C 95 % 1016,1 hPa 0,0 mm 0,0 km/h (0 Bft) E-SE 104 0 min 0 min 0,000 mm 0,0 UV-I 0 W/m 17,1 C 17,9 C 0,0 km/h (0 Bft) 100,00 %
28/05/2018 04:54 17,9 C 95 % 1016,1 hPa 0,0 mm 0,0 km/h (0 Bft) E-SE 104 0 min 0 min 0,000 mm 0,0 UV-I 0 W/m 17,1 C 17,9 C 0,0 km/h (0 Bft) 100,00 %
28/05/2018 04:53 17,9 C 95 % 1016,1 hPa 0,0 mm 0,0 km/h (0 Bft) E-SE 104 0 min 0 min 0,000 mm 0,0 UV-I 0 W/m 17,1 C 17,9 C 0,0 km/h (0 Bft) 100,00 %
28/05/2018 04:52 17,9 C 95 % 1016,1 hPa 0,0 mm 0,0 km/h (0 Bft) E-SE 104 0 min 0 min 0,000 mm 0,0 UV-I 0 W/m 17,1 C 17,9 C 0,0 km/h (0 Bft) 100,00 %
28/05/2018 04:51 18,0 C 95 % 1016,1 hPa 0,0 mm 0,0 km/h (0 Bft) E-SE 104 0 min 0 min 0,000 mm 0,0 UV-I 0 W/m 17,2 C 18,0 C 0,0 km/h (0 Bft) 96,00 %
28/05/2018 04:50 18,0 C 95 % 1016,1 hPa 0,0 mm 0,0 km/h (0 Bft) E-SE 104 0 min 0 min 0,000 mm 0,0 UV-I 0 W/m 17,2 C 18,0 C 0,0 km/h (0 Bft) 100,00 %
28/05/2018 04:49 18,0 C 95 % 1016,1 hPa 0,0 mm 0,2 km/h (0 Bft) E-SE 104 0 min 0 min 0,000 mm 0,0 UV-I 0 W/m 17,2 C 18,0 C 1,8 km/h (1 Bft) 100,00 %
28/05/2018 04:48 18,0 C 95 % 1016,1 hPa 0,0 mm 0,0 km/h (0 Bft) E-SE 104 0 min 0 min 0,000 mm 0,0 UV-I 0 W/m 17,2 C 18,0 C 0,0 km/h (0 Bft) 95,83 %
28/05/2018 04:47 18,0 C 95 % 1016,0 hPa 0,0 mm 0,0 km/h (0 Bft) E-SE 104 0 min 0 min 0,000 mm 0,0 UV-I 0 W/m 17,2 C 18,0 C 0,0 km/h (0 Bft) 100,00 %
28/05/2018 04:46 18,0 C 95 % 1016,0 hPa 0,0 mm 0,0 km/h (0 Bft) E-SE 104 0 min 0 min 0,000 mm 0,0 UV-I 0 W/m 17,2 C 18,0 C 0,0 km/h (0 Bft) 100,00 %
28/05/2018 04:45 18,0 C 95 % 1016,0 hPa 0,0 mm 0,0 km/h (0 Bft) E-SE 104 0 min 0 min 0,000 mm 0,0 UV-I 0 W/m 17,2 C 18,0 C 0,0 km/h (0 Bft) 100,00 %
28/05/2018 04:44 18,0 C 95 % 1016,1 hPa 0,0 mm 0,8 km/h (0 Bft) E-SE 104 0 min 0 min 0,000 mm 0,0 UV-I 0 W/m 17,2 C 18,0 C 1,8 km/h (1 Bft) 100,00 %
28/05/2018 04:43 18,0 C 95 % 1016,1 hPa 0,0 mm 0,4 km/h (0 Bft) E-SE 104 0 min 0 min 0,000 mm 0,0 UV-I 0 W/m 17,2 C 18,0 C 3,5 km/h (1 Bft) 100,00 %
28/05/2018 04:42 18,0 C 95 % 1016,1 hPa 0,0 mm 0,0 km/h (0 Bft) E-SE 104 0 min 0 min 0,000 mm 0,0 UV-I 0 W/m 17,2 C 18,0 C 0,0 km/h (0 Bft) 100,00 %
28/05/2018 04:41 18,0 C 95 % 1016,1 hPa 0,0 mm 0,0 km/h (0 Bft) E-SE 104 0 min 0 min 0,000 mm 0,0 UV-I 0 W/m 17,2 C 18,0 C 0,0 km/h (0 Bft) 100,00 %
28/05/2018 04:40 18,0 C 95 % 1016,1 hPa 0,0 mm 0,0 km/h (0 Bft) E-SE 104 0 min 0 min 0,000 mm 0,0 UV-I 0 W/m 17,2 C 18,0 C 0,0 km/h (0 Bft) 100,00 %
28/05/2018 04:39 18,0 C 95 % 1016,1 hPa 0,0 mm 3,3 km/h (1 Bft) E-SE 104 0 min 0 min 0,000 mm 0,0 UV-I 0 W/m 17,2 C 18,0 C 7,1 km/h (2 Bft) 100,00 %
28/05/2018 04:38 18,0 C 95 % 1016,1 hPa 0,0 mm 2,6 km/h (1 Bft) E-SE 106 0 min 0 min 0,000 mm 0,0 UV-I 0 W/m 17,2 C 18,0 C 3,5 km/h (1 Bft) 100,00 %
28/05/2018 04:37 18,0 C 95 % 1016,1 hPa 0,0 mm 4,3 km/h (1 Bft) E-SE 107 0 min 0 min 0,000 mm 0,0 UV-I 0 W/m 17,2 C 18,0 C 7,1 km/h (2 Bft) 100,00 %
28/05/2018 04:36 18,0 C 95 % 1016,1 hPa 0,0 mm 3,5 km/h (1 Bft) E 93 0 min 0 min 0,000 mm 0,0 UV-I 0 W/m 17,2 C 18,0 C 7,1 km/h (2 Bft) 100,00 %
28/05/2018 04:35 18,0 C 95 % 1016,1 hPa 0,0 mm 3,1 km/h (1 Bft) E-SE 107 0 min 0 min 0,000 mm 0,0 UV-I 0 W/m 17,2 C 18,0 C 7,1 km/h (2 Bft) 100,00 %
28/05/2018 04:34 18,0 C 95 % 1016,1 hPa 0,0 mm 0,7 km/h (0 Bft) O-SO 255 0 min 0 min 0,000 mm 0,0 UV-I 0 W/m 17,2 C 18,0 C 1,8 km/h (1 Bft) 100,00 %
28/05/2018 04:33 18,0 C 95 % 1016,1 hPa 0,0 mm 0,7 km/h (0 Bft) O-SO 255 0 min 0 min 0,000 mm 0,0 UV-I 0 W/m 17,2 C 18,0 C 1,8 km/h (1 Bft) 100,00 %
28/05/2018 04:32 18,0 C 95 % 1016,0 hPa 0,0 mm 0,0 km/h (0 Bft) O-SO 257 0 min 0 min 0,000 mm 0,0 UV-I 0 W/m 17,2 C 18,0 C 0,0 km/h (0 Bft) 100,00 %
28/05/2018 04:31 18,0 C 95 % 1016,1 hPa 0,0 mm 0,0 km/h (0 Bft) O-SO 257 0 min 0 min 0,000 mm 0,0 UV-I 0 W/m 17,2 C 18,0 C 1,8 km/h (1 Bft) 100,00 %
28/05/2018 04:29 18,0 C 95 % 1016,0 hPa 0,0 mm 0,0 km/h (0 Bft) O-SO 257 0 min 0 min 0,000 mm 0,0 UV-I 0 W/m 17,2 C 18,0 C 0,0 km/h (0 Bft) 100,00 %
28/05/2018 04:28 18,1 C 95 % 1016,0 hPa 0,0 mm 0,0 km/h (0 Bft) O-SO 257 0 min 0 min 0,000 mm 0,0 UV-I 0 W/m 17,3 C 18,1 C 0,0 km/h (0 Bft) 100,00 %
28/05/2018 04:27 18,1 C 95 % 1016,0 hPa 0,0 mm 0,0 km/h (0 Bft) O-SO 257 0 min 0 min 0,000 mm 0,0 UV-I 0 W/m 17,3 C 18,1 C 0,0 km/h (0 Bft) 96,43 %
28/05/2018 04:26 18,1 C 95 % 1016,0 hPa 0,0 mm 0,0 km/h (0 Bft) O-SO 257 0 min 0 min 0,000 mm 0,0 UV-I 0 W/m 17,3 C 18,1 C 0,0 km/h (0 Bft) 100,00 %
28/05/2018 04:25 18,1 C 95 % 1015,9 hPa 0,0 mm 0,0 km/h (0 Bft) O-SO 257 0 min 0 min 0,000 mm 0,0 UV-I 0 W/m 17,3 C 18,1 C 0,0 km/h (0 Bft) 100,00 %
28/05/2018 04:24 18,1 C 95 % 1016,0 hPa 0,0 mm 0,3 km/h (0 Bft) O-SO 257 0 min 0 min 0,000 mm 0,0 UV-I 0 W/m 17,3 C 18,1 C 1,8 km/h (1 Bft) 100,00 %
28/05/2018 04:23 18,1 C 95 % 1016,0 hPa 0,0 mm 0,0 km/h (0 Bft) O-SO 257 0 min 0 min 0,000 mm 0,0 UV-I 0 W/m 17,3 C 18,1 C 0,0 km/h (0 Bft) 100,00 %
28/05/2018 04:22 18,2 C 95 % 1016,0 hPa 0,0 mm 0,0 km/h (0 Bft) O-SO 257 0 min 0 min 0,000 mm 0,0 UV-I 0 W/m 17,4 C 18,2 C 0,0 km/h (0 Bft) 95,83 %
28/05/2018 04:21 18,2 C 95 % 1016,0 hPa 0,0 mm 0,0 km/h (0 Bft) O-SO 257 0 min 0 min 0,000 mm 0,0 UV-I 0 W/m 17,4 C 18,2 C 0,0 km/h (0 Bft) 100,00 %
28/05/2018 04:20 18,2 C 95 % 1016,0 hPa 0,0 mm 0,0 km/h (0 Bft) O-SO 257 0 min 0 min 0,000 mm 0,0 UV-I 0 W/m 17,4 C 18,2 C 0,0 km/h (0 Bft) 100,00 %
28/05/2018 04:19 18,2 C 95 % 1016,0 hPa 0,0 mm 0,0 km/h (0 Bft) O-SO 257 0 min 0 min 0,000 mm 0,0 UV-I 0 W/m 17,4 C 18,2 C 0,0 km/h (0 Bft) 100,00 %
28/05/2018 04:18 18,2 C 95 % 1016,1 hPa 0,0 mm 0,0 km/h (0 Bft) O-SO 257 0 min 0 min 0,000 mm 0,0 UV-I 0 W/m 17,4 C 18,2 C 0,0 km/h (0 Bft) 100,00 %
28/05/2018 04:17 18,3 C 95 % 1016,1 hPa 0,0 mm 0,0 km/h (0 Bft) O-SO 257 0 min 0 min 0,000 mm 0,0 UV-I 0 W/m 17,5 C 18,3 C 0,0 km/h (0 Bft) 100,00 %
28/05/2018 04:16 18,3 C 95 % 1016,1 hPa 0,0 mm 0,0 km/h (0 Bft) O-SO 257 0 min 0 min 0,000 mm 0,0 UV-I 0 W/m 17,5 C 18,3 C 0,0 km/h (0 Bft) 100,00 %
28/05/2018 04:15 18,3 C 95 % 1016,1 hPa 0,0 mm 0,0 km/h (0 Bft) O-SO 257 0 min 0 min 0,000 mm 0,0 UV-I 0 W/m 17,5 C 18,3 C 0,0 km/h (0 Bft) 100,00 %
28/05/2018 04:14 18,3 C 95 % 1016,1 hPa 0,0 mm 0,0 km/h (0 Bft) O-SO 257 0 min 0 min 0,000 mm 0,0 UV-I 0 W/m 17,5 C 18,3 C 0,0 km/h (0 Bft) 91,30 %
28/05/2018 04:13 18,3 C 94 % 1016,2 hPa 0,0 mm 0,0 km/h (0 Bft) O-SO 257 0 min 0 min 0,000 mm 0,0 UV-I 0 W/m 17,3 C 18,3 C 0,0 km/h (0 Bft) 100,00 %
28/05/2018 04:12 18,4 C 94 % 1016,2 hPa 0,0 mm 0,0 km/h (0 Bft) O-SO 257 0 min 0 min 0,000 mm 0,0 UV-I 0 W/m 17,4 C 18,4 C 0,0 km/h (0 Bft) 100,00 %
28/05/2018 04:11 18,4 C 94 % 1016,2 hPa 0,0 mm 0,0 km/h (0 Bft) O-SO 257 0 min 0 min 0,000 mm 0,0 UV-I 0 W/m 17,4 C 18,4 C 0,0 km/h (0 Bft) 100,00 %
28/05/2018 04:10 18,4 C 94 % 1016,1 hPa 0,0 mm 0,0 km/h (0 Bft) O-SO 257 0 min 0 min 0,000 mm 0,0 UV-I 0 W/m 17,4 C 18,4 C 0,0 km/h (0 Bft) 95,83 %
28/05/2018 04:09 18,4 C 94 % 1016,2 hPa 0,0 mm 0,1 km/h (0 Bft) O-SO 257 0 min 0 min 0,000 mm 0,0 UV-I 0 W/m 17,4 C 18,4 C 1,8 km/h (1 Bft) 96,30 %
28/05/2018 04:08 18,5 C 94 % 1016,1 hPa 0,0 mm 1,4 km/h (1 Bft) O-SO 257 0 min 0 min 0,000 mm 0,0 UV-I 0 W/m 17,5 C 18,5 C 1,8 km/h (1 Bft) 100,00 %
28/05/2018 04:07 18,5 C 94 % 1016,1 hPa 0,0 mm 0,8 km/h (0 Bft) O-SO 257 0 min 0 min 0,000 mm 0,0 UV-I 0 W/m 17,5 C 18,5 C 3,5 km/h (1 Bft) 100,00 %
28/05/2018 04:06 18,5 C 94 % 1016,0 hPa 0,0 mm 0,9 km/h (0 Bft) O-SO 254 0 min 0 min 0,000 mm 0,0 UV-I 0 W/m 17,5 C 18,5 C 3,5 km/h (1 Bft) 96,00 %
28/05/2018 04:05 18,5 C 94 % 1016,0 hPa 0,0 mm 0,5 km/h (0 Bft) O-SO 254 0 min 0 min 0,000 mm 0,0 UV-I 0 W/m 17,5 C 18,5 C 1,8 km/h (1 Bft) 95,83 %
28/05/2018 04:04 18,5 C 94 % 1016,1 hPa 0,0 mm 0,6 km/h (0 Bft) O-SO 254 0 min 0 min 0,000 mm 0,0 UV-I 0 W/m 17,5 C 18,5 C 1,8 km/h (1 Bft) 100,00 %
28/05/2018 04:03 18,5 C 94 % 1016,0 hPa 0,0 mm 0,9 km/h (0 Bft) O-SO 254 0 min 0 min 0,000 mm 0,0 UV-I 0 W/m 17,5 C 18,5 C 3,5 km/h (1 Bft) 95,83 %
28/05/2018 04:02 18,5 C 94 % 1016,0 hPa 0,0 mm 1,3 km/h (1 Bft) O-SO 254 0 min 0 min 0,000 mm 0,0 UV-I 0 W/m 17,5 C 18,5 C 3,5 km/h (1 Bft) 100,00 %
28/05/2018 04:01 18,5 C 94 % 1016,1 hPa 0,0 mm 0,0 km/h (0 Bft) O-SO 254 0 min 0 min 0,000 mm 0,0 UV-I 0 W/m 17,5 C 18,5 C 0,0 km/h (0 Bft) 95,83 %
28/05/2018 04:00 18,5 C 94 % 1016,1 hPa 0,0 mm 0,0 km/h (0 Bft) O-SO 254 0 min 0 min 0,000 mm 0,0 UV-I 0 W/m 17,5 C 18,5 C 0,0 km/h (0 Bft) 100,00 %
28/05/2018 03:59 18,5 C 94 % 1016,0 hPa 0,0 mm 0,0 km/h (0 Bft) O-SO 254 0 min 0 min 0,000 mm 0,0 UV-I 0 W/m 17,5 C 18,5 C 0,0 km/h (0 Bft) 95,83 %
28/05/2018 03:58 18,5 C 94 % 1016,0 hPa 0,0 mm 0,1 km/h (0 Bft) O-SO 254 0 min 0 min 0,000 mm 0,0 UV-I 0 W/m 17,5 C 18,5 C 1,8 km/h (1 Bft) 91,30 %
28/05/2018 03:57 18,5 C 95 % 1016,0 hPa 0,0 mm 0,0 km/h (0 Bft) O-SO 254 0 min 0 min 0,000 mm 0,0 UV-I 0 W/m 17,7 C 18,5 C 0,0 km/h (0 Bft) 100,00 %
28/05/2018 03:56 18,5 C 95 % 1016,0 hPa 0,0 mm 0,0 km/h (0 Bft) O-SO 254 0 min 0 min 0,000 mm 0,0 UV-I 0 W/m 17,7 C 18,5 C 0,0 km/h (0 Bft) 97,44 %
28/05/2018 03:55 18,5 C 95 % 1016,0 hPa 0,0 mm 2,2 km/h (1 Bft) O-SO 254 0 min 0 min 0,000 mm 0,0 UV-I 0 W/m 17,7 C 18,5 C 3,5 km/h (1 Bft) 91,67 %
28/05/2018 03:54 18,5 C 95 % 1016,0 hPa 0,0 mm 0,5 km/h (0 Bft) O-SO 257 0 min 0 min 0,000 mm 0,0 UV-I 0 W/m 17,7 C 18,5 C 3,5 km/h (1 Bft) 91,67 %
28/05/2018 03:53 18,5 C 95 % 1016,0 hPa 0,0 mm 0,1 km/h (0 Bft) O 259 0 min 0 min 0,000 mm 0,0 UV-I 0 W/m 17,7 C 18,5 C 1,8 km/h (1 Bft) 100,00 %
28/05/2018 03:52 18,5 C 95 % 1016,0 hPa 0,0 mm 0,0 km/h (0 Bft) O 259 0 min 0 min 0,000 mm 0,0 UV-I 0 W/m 17,7 C 18,5 C 0,0 km/h (0 Bft) 96,30 %
28/05/2018 03:51 18,5 C 95 % 1016,0 hPa 0,0 mm 3,3 km/h (1 Bft) O 259 0 min 0 min 0,000 mm 0,0 UV-I 0 W/m 17,7 C 18,5 C 5,3 km/h (1 Bft) 100,00 %
28/05/2018 03:50 18,5 C 95 % 1016,1 hPa 0,0 mm 3,7 km/h (1 Bft) O 259 0 min 0 min 0,000 mm 0,0 UV-I 0 W/m 17,7 C 18,5 C 7,1 km/h (2 Bft) 96,15 %
28/05/2018 03:49 18,5 C 95 % 1016,1 hPa 0,0 mm 4,5 km/h (1 Bft) O 269 0 min 0 min 0,000 mm 0,0 UV-I 0 W/m 17,7 C 18,5 C 7,1 km/h (2 Bft) 100,00 %
28/05/2018 03:48 18,5 C 95 % 1016,1 hPa 0,0 mm 2,4 km/h (1 Bft) O 274 0 min 0 min 0,000 mm 0,0 UV-I 0 W/m 17,7 C 18,5 C 3,5 km/h (1 Bft) 96,55 %
28/05/2018 03:47 18,5 C 95 % 1016,2 hPa 0,0 mm 3,0 km/h (1 Bft) O 274 0 min 0 min 0,000 mm 0,0 UV-I 0 W/m 17,7 C 18,5 C 5,3 km/h (1 Bft) 96,15 %
28/05/2018 03:46 18,5 C 95 % 1016,2 hPa 0,0 mm 0,1 km/h (0 Bft) O 280 0 min 0 min 0,000 mm 0,0 UV-I 0 W/m 17,7 C 18,5 C 1,8 km/h (1 Bft) 100,00 %
28/05/2018 03:45 18,4 C 95 % 1016,2 hPa 0,0 mm 2,7 km/h (1 Bft) O 281 0 min 0 min 0,000 mm 0,0 UV-I 0 W/m 17,6 C 18,4 C 3,5 km/h (1 Bft) 96,00 %
28/05/2018 03:44 18,4 C 95 % 1016,1 hPa 0,0 mm 1,8 km/h (1 Bft) O 281 0 min 0 min 0,000 mm 0,0 UV-I 0 W/m 17,6 C 18,4 C 5,3 km/h (1 Bft) 100,00 %
28/05/2018 03:43 18,5 C 95 % 1016,1 hPa 0,0 mm 2,0 km/h (1 Bft) O-NO 284 0 min 0 min 0,000 mm 0,0 UV-I 0 W/m 17,7 C 18,5 C 5,3 km/h (1 Bft) 95,83 %
28/05/2018 03:42 18,4 C 95 % 1016,1 hPa 0,0 mm 1,2 km/h (1 Bft) O-NO 284 0 min 0 min 0,000 mm 0,0 UV-I 0 W/m 17,6 C 18,4 C 3,5 km/h (1 Bft) 100,00 %
28/05/2018 03:41 18,4 C 95 % 1016,1 hPa 0,0 mm 2,6 km/h (1 Bft) O-NO 284 0 min 0 min 0,000 mm 0,0 UV-I 0 W/m 17,6 C 18,4 C 3,5 km/h (1 Bft) 95,83 %
28/05/2018 03:40 18,4 C 95 % 1016,0 hPa 0,0 mm 4,1 km/h (1 Bft) O-NO 284 0 min 0 min 0,000 mm 0,0 UV-I 0 W/m 17,6 C 18,4 C 5,3 km/h (1 Bft) 95,83 %
28/05/2018 03:39 18,4 C 95 % 1016,0 hPa 0,0 mm 3,6 km/h (1 Bft) O-NO 285 0 min 0 min 0,000 mm 0,0 UV-I 0 W/m 17,6 C 18,4 C 5,3 km/h (1 Bft) 100,00 %
28/05/2018 03:38 18,4 C 95 % 1016,0 hPa 0,0 mm 2,9 km/h (1 Bft) NO 309 0 min 0 min 0,000 mm 0,0 UV-I 0 W/m 17,6 C 18,4 C 3,5 km/h (1 Bft) 95,65 %
28/05/2018 03:37 18,4 C 95 % 1016,0 hPa 0,0 mm 0,5 km/h (0 Bft) NO 309 0 min 0 min 0,000 mm 0,0 UV-I 0 W/m 17,6 C 18,4 C 3,5 km/h (1 Bft) 100,00 %
28/05/2018 03:36 18,4 C 95 % 1015,9 hPa 0,0 mm 0,0 km/h (0 Bft) NE 42 0 min 0 min 0,000 mm 0,0 UV-I 0 W/m 17,6 C 18,4 C 0,0 km/h (0 Bft) 93,33 %
28/05/2018 03:35 18,4 C 95 % 1016,0 hPa 0,0 mm 0,0 km/h (0 Bft) NE 42 0 min 0 min 0,000 mm 0,0 UV-I 0 W/m 17,6 C 18,4 C 0,0 km/h (0 Bft) 100,00 %
28/05/2018 03:34 18,4 C 95 % 1016,0 hPa 0,0 mm 0,0 km/h (0 Bft) NE 42 0 min 0 min 0,000 mm 0,0 UV-I 0 W/m 17,6 C 18,4 C 0,0 km/h (0 Bft) 96,15 %
28/05/2018 03:33 18,4 C 95 % 1016,0 hPa 0,0 mm 0,0 km/h (0 Bft) NE 42 0 min 0 min 0,000 mm 0,0 UV-I 0 W/m 17,6 C 18,4 C 0,0 km/h (0 Bft) 100,00 %
28/05/2018 03:32 18,4 C 95 % 1016,0 hPa 0,0 mm 0,0 km/h (0 Bft) NE 42 0 min 0 min 0,000 mm 0,0 UV-I 0 W/m 17,6 C 18,4 C 0,0 km/h (0 Bft) 96,15 %
28/05/2018 03:31 18,4 C 95 % 1016,0 hPa 0,0 mm 0,0 km/h (0 Bft) NE 42 0 min 0 min 0,000 mm 0,0 UV-I 0 W/m 17,6 C 18,4 C 0,0 km/h (0 Bft) 100,00 %
28/05/2018 03:30 18,4 C 95 % 1016,0 hPa 0,0 mm 0,0 km/h (0 Bft) NE 42 0 min 0 min 0,000 mm 0,0 UV-I 0 W/m 17,6 C 18,4 C 0,0 km/h (0 Bft) 100,00 %
28/05/2018 03:29 18,4 C 95 % 1015,9 hPa 0,0 mm 0,0 km/h (0 Bft) NE 42 0 min 0 min 0,000 mm 0,0 UV-I 0 W/m 17,6 C 18,4 C 0,0 km/h (0 Bft) 100,00 %
28/05/2018 03:28 18,4 C 95 % 1015,9 hPa 0,0 mm 0,0 km/h (0 Bft) NE 42 0 min 0 min 0,000 mm 0,0 UV-I 0 W/m 17,6 C 18,4 C 0,0 km/h (0 Bft) 96,67 %
28/05/2018 03:27 18,4 C 95 % 1016,0 hPa 0,0 mm 0,0 km/h (0 Bft) NE 42 0 min 0 min 0,000 mm 0,0 UV-I 0 W/m 17,6 C 18,4 C 0,0 km/h (0 Bft) 95,65 %
28/05/2018 03:26 18,4 C 95 % 1016,0 hPa 0,0 mm 0,0 km/h (0 Bft) NE 42 0 min 0 min 0,000 mm 0,0 UV-I 0 W/m 17,6 C 18,4 C 0,0 km/h (0 Bft) 100,00 %
28/05/2018 03:25 18,4 C 95 % 1015,9 hPa 0,0 mm 0,0 km/h (0 Bft) NE 42 0 min 0 min 0,000 mm 0,0 UV-I 0 W/m 17,6 C 18,4 C 0,0 km/h (0 Bft) 100,00 %
28/05/2018 03:24 18,4 C 95 % 1015,9 hPa 0,0 mm 0,0 km/h (0 Bft) NE 42 0 min 0 min 0,000 mm 0,0 UV-I 0 W/m 17,6 C 18,4 C 0,0 km/h (0 Bft) 100,00 %
28/05/2018 03:23 18,4 C 95 % 1015,9 hPa 0,0 mm 0,0 km/h (0 Bft) NE 42 0 min 0 min 0,000 mm 0,0 UV-I 0 W/m 17,6 C 18,4 C 0,0 km/h (0 Bft) 100,00 %
28/05/2018 03:22 18,4 C 95 % 1015,9 hPa 0,0 mm 0,0 km/h (0 Bft) NE 42 0 min 0 min 0,000 mm 0,0 UV-I 0 W/m 17,6 C 18,4 C 0,0 km/h (0 Bft) 95,65 %
28/05/2018 03:21 18,4 C 95 % 1015,9 hPa 0,0 mm 0,0 km/h (0 Bft) NE 42 0 min 0 min 0,000 mm 0,0 UV-I 0 W/m 17,6 C 18,4 C 0,0 km/h (0 Bft) 100,00 %
28/05/2018 03:20 18,4 C 95 % 1015,9 hPa 0,0 mm 0,0 km/h (0 Bft) NE 42 0 min 0 min 0,000 mm 0,0 UV-I 0 W/m 17,6 C 18,4 C 0,0 km/h (0 Bft) 100,00 %
28/05/2018 03:19 18,4 C 95 % 1015,9 hPa 0,0 mm 0,5 km/h (0 Bft) NE 42 0 min 0 min 0,000 mm 0,0 UV-I 0 W/m 17,6 C 18,4 C 1,8 km/h (1 Bft) 100,00 %
28/05/2018 03:18 18,4 C 95 % 1015,8 hPa 0,0 mm 0,0 km/h (0 Bft) NE 42 0 min 0 min 0,000 mm 0,0 UV-I 0 W/m 17,6 C 18,4 C 0,0 km/h (0 Bft) 100,00 %
28/05/2018 03:17 18,3 C 95 % 1015,8 hPa 0,0 mm 0,1 km/h (0 Bft) NE 42 0 min 0 min 0,000 mm 0,0 UV-I 0 W/m 17,5 C 18,3 C 1,8 km/h (1 Bft) 100,00 %
28/05/2018 03:16 18,3 C 95 % 1015,8 hPa 0,0 mm 0,5 km/h (0 Bft) NE 42 0 min 0 min 0,000 mm 0,0 UV-I 0 W/m 17,5 C 18,3 C 1,8 km/h (1 Bft) 95,83 %
28/05/2018 03:15 18,3 C 95 % 1015,8 hPa 0,0 mm 0,0 km/h (0 Bft) NE 42 0 min 0 min 0,000 mm 0,0 UV-I 0 W/m 17,5 C 18,3 C 0,0 km/h (0 Bft) 100,00 %
28/05/2018 03:14 18,3 C 95 % 1015,8 hPa 0,0 mm 0,0 km/h (0 Bft) NE 42 0 min 0 min 0,000 mm 0,0 UV-I 0 W/m 17,5 C 18,3 C 0,0 km/h (0 Bft) 91,30 %
28/05/2018 03:13 18,3 C 95 % 1015,6 hPa 0,0 mm 0,0 km/h (0 Bft) NE 42 0 min 0 min 0,000 mm 0,0 UV-I 0 W/m 17,5 C 18,3 C 0,0 km/h (0 Bft) 100,00 %
28/05/2018 03:12 18,3 C 95 % 1015,6 hPa 0,0 mm 0,0 km/h (0 Bft) NE 42 0 min 0 min 0,000 mm 0,0 UV-I 0 W/m 17,5 C 18,3 C 0,0 km/h (0 Bft) 100,00 %
28/05/2018 03:11 18,3 C 95 % 1015,6 hPa 0,0 mm 0,3 km/h (0 Bft) NE 42 0 min 0 min 0,000 mm 0,0 UV-I 0 W/m 17,5 C 18,3 C 1,8 km/h (1 Bft) 100,00 %
28/05/2018 03:10 18,3 C 95 % 1015,6 hPa 0,0 mm 0,0 km/h (0 Bft) NE 42 0 min 0 min 0,000 mm 0,0 UV-I 0 W/m 17,5 C 18,3 C 0,0 km/h (0 Bft) 100,00 %
28/05/2018 03:09 18,3 C 94 % 1015,6 hPa 0,0 mm 0,0 km/h (0 Bft) NE 42 0 min 0 min 0,000 mm 0,0 UV-I 0 W/m 17,3 C 18,3 C 0,0 km/h (0 Bft) 100,00 %
28/05/2018 03:08 18,3 C 94 % 1015,6 hPa 0,0 mm 0,3 km/h (0 Bft) NE 42 0 min 0 min 0,000 mm 0,0 UV-I 0 W/m 17,3 C 18,3 C 1,8 km/h (1 Bft) 100,00 %
28/05/2018 03:07 18,3 C 94 % 1015,6 hPa 0,0 mm 0,0 km/h (0 Bft) NE 42 0 min 0 min 0,000 mm 0,0 UV-I 0 W/m 17,3 C 18,3 C 0,0 km/h (0 Bft) 100,00 %
28/05/2018 03:06 18,3 C 94 % 1015,6 hPa 0,0 mm 0,0 km/h (0 Bft) NE 42 0 min 0 min 0,000 mm 0,0 UV-I 0 W/m 17,3 C 18,3 C 0,0 km/h (0 Bft) 100,00 %
28/05/2018 03:05 18,3 C 94 % 1015,5 hPa 0,0 mm 0,0 km/h (0 Bft) NE 42 0 min 0 min 0,000 mm 0,0 UV-I 0 W/m 17,3 C 18,3 C 0,0 km/h (0 Bft) 100,00 %
28/05/2018 03:04 18,3 C 94 % 1015,6 hPa 0,0 mm 0,0 km/h (0 Bft) NE 42 0 min 0 min 0,000 mm 0,0 UV-I 0 W/m 17,3 C 18,3 C 0,0 km/h (0 Bft) 94,44 %
28/05/2018 03:03 18,3 C 94 % 1015,6 hPa 0,0 mm 0,0 km/h (0 Bft) NE 42 0 min 0 min 0,000 mm 0,0 UV-I 0 W/m 17,3 C 18,3 C 0,0 km/h (0 Bft) 100,00 %
28/05/2018 03:02 18,3 C 94 % 1015,6 hPa 0,0 mm 0,0 km/h (0 Bft) NE 42 0 min 0 min 0,000 mm 0,0 UV-I 0 W/m 17,3 C 18,3 C 0,0 km/h (0 Bft) 100,00 %
28/05/2018 03:01 18,3 C 94 % 1015,7 hPa 0,0 mm 0,0 km/h (0 Bft) NE 42 0 min 0 min 0,000 mm 0,0 UV-I 0 W/m 17,3 C 18,3 C 0,0 km/h (0 Bft) 100,00 %
28/05/2018 03:00 18,3 C 94 % 1015,7 hPa 0,0 mm 0,0 km/h (0 Bft) NE 42 0 min 0 min 0,000 mm 0,0 UV-I 0 W/m 17,3 C 18,3 C 0,0 km/h (0 Bft) 100,00 %
28/05/2018 02:59 18,3 C 94 % 1015,6 hPa 0,0 mm 0,0 km/h (0 Bft) NE 42 0 min 0 min 0,000 mm 0,0 UV-I 0 W/m 17,3 C 18,3 C 0,0 km/h (0 Bft) 100,00 %
28/05/2018 02:58 18,3 C 94 % 1015,7 hPa 0,0 mm 0,0 km/h (0 Bft) NE 42 0 min 0 min 0,000 mm 0,0 UV-I 0 W/m 17,3 C 18,3 C 0,0 km/h (0 Bft) 100,00 %
28/05/2018 02:57 18,3 C 94 % 1015,7 hPa 0,0 mm 0,0 km/h (0 Bft) NE 42 0 min 0 min 0,000 mm 0,0 UV-I 0 W/m 17,3 C 18,3 C 0,0 km/h (0 Bft) 100,00 %
28/05/2018 02:56 18,3 C 94 % 1015,7 hPa 0,0 mm 0,0 km/h (0 Bft) NE 42 0 min 0 min 0,000 mm 0,0 UV-I 0 W/m 17,3 C 18,3 C 0,0 km/h (0 Bft) 100,00 %
28/05/2018 02:55 18,3 C 94 % 1015,7 hPa 0,0 mm 0,0 km/h (0 Bft) NE 42 0 min 0 min 0,000 mm 0,0 UV-I 0 W/m 17,3 C 18,3 C 0,0 km/h (0 Bft) 100,00 %
28/05/2018 02:54 18,3 C 94 % 1015,7 hPa 0,0 mm 0,0 km/h (0 Bft) NE 42 0 min 0 min 0,000 mm 0,0 UV-I 0 W/m 17,3 C 18,3 C 0,0 km/h (0 Bft) 95,65 %
28/05/2018 02:53 18,3 C 94 % 1015,8 hPa 0,0 mm 0,0 km/h (0 Bft) NE 42 0 min 0 min 0,000 mm 0,0 UV-I 0 W/m 17,3 C 18,3 C 0,0 km/h (0 Bft) 100,00 %
28/05/2018 02:52 18,3 C 94 % 1015,7 hPa 0,0 mm 0,0 km/h (0 Bft) NE 42 0 min 0 min 0,000 mm 0,0 UV-I 0 W/m 17,3 C 18,3 C 0,0 km/h (0 Bft) 100,00 %
28/05/2018 02:51 18,3 C 94 % 1015,7 hPa 0,0 mm 0,0 km/h (0 Bft) NE 42 0 min 0 min 0,000 mm 0,0 UV-I 0 W/m 17,3 C 18,3 C 0,0 km/h (0 Bft) 100,00 %
28/05/2018 02:50 18,3 C 94 % 1015,7 hPa 0,0 mm 0,0 km/h (0 Bft) NE 42 0 min 0 min 0,000 mm 0,0 UV-I 0 W/m 17,3 C 18,3 C 0,0 km/h (0 Bft) 100,00 %
28/05/2018 02:49 18,3 C 94 % 1015,8 hPa 0,0 mm 0,0 km/h (0 Bft) NE 42 0 min 0 min 0,000 mm 0,0 UV-I 0 W/m 17,3 C 18,3 C 0,0 km/h (0 Bft) 100,00 %
28/05/2018 02:48 18,3 C 94 % 1015,8 hPa 0,0 mm 0,4 km/h (0 Bft) NE 42 0 min 0 min 0,000 mm 0,0 UV-I 0 W/m 17,3 C 18,3 C 1,8 km/h (1 Bft) 100,00 %
28/05/2018 02:47 18,3 C 94 % 1015,8 hPa 0,0 mm 2,3 km/h (1 Bft) NE 42 0 min 0 min 0,000 mm 0,0 UV-I 0 W/m 17,3 C 18,3 C 3,5 km/h (1 Bft) 100,00 %
28/05/2018 02:46 18,3 C 94 % 1015,9 hPa 0,0 mm 5,0 km/h (1 Bft) NE 42 0 min 0 min 0,000 mm 0,0 UV-I 0 W/m 17,3 C 18,3 C 7,1 km/h (2 Bft) 100,00 %
28/05/2018 02:45 18,3 C 94 % 1015,9 hPa 0,0 mm 3,6 km/h (1 Bft) N-NE 32 0 min 0 min 0,000 mm 0,0 UV-I 0 W/m 17,3 C 18,3 C 5,3 km/h (1 Bft) 100,00 %
28/05/2018 02:44 18,3 C 94 % 1015,9 hPa 0,0 mm 3,7 km/h (1 Bft) N 355 0 min 0 min 0,000 mm 0,0 UV-I 0 W/m 17,3 C 18,3 C 7,1 km/h (2 Bft) 100,00 %
28/05/2018 02:43 18,3 C 94 % 1015,9 hPa 0,0 mm 4,3 km/h (1 Bft) NE 44 0 min 0 min 0,000 mm 0,0 UV-I 0 W/m 17,3 C 18,3 C 7,1 km/h (2 Bft) 100,00 %
28/05/2018 02:42 18,3 C 94 % 1016,0 hPa 0,0 mm 2,9 km/h (1 Bft) N-NE 13 0 min 0 min 0,000 mm 0,0 UV-I 0 W/m 17,3 C 18,3 C 5,3 km/h (1 Bft) 100,00 %
28/05/2018 02:41 18,3 C 94 % 1016,0 hPa 0,0 mm 1,8 km/h (1 Bft) N-NO 348 0 min 0 min 0,000 mm 0,0 UV-I 0 W/m 17,3 C 18,3 C 5,3 km/h (1 Bft) 95,65 %
28/05/2018 02:40 18,3 C 94 % 1016,0 hPa 0,0 mm 1,2 km/h (1 Bft) N-NO 334 0 min 0 min 0,000 mm 0,0 UV-I 0 W/m 17,3 C 18,3 C 3,5 km/h (1 Bft) 100,00 %
28/05/2018 02:39 18,3 C 94 % 1016,0 hPa 0,0 mm 0,3 km/h (0 Bft) N-NO 334 0 min 0 min 0,000 mm 0,0 UV-I 0 W/m 17,3 C 18,3 C 1,8 km/h (1 Bft) 100,00 %
28/05/2018 02:38 18,3 C 94 % 1016,0 hPa 0,0 mm 0,4 km/h (0 Bft) N-NO 334 0 min 0 min 0,000 mm 0,0 UV-I 0 W/m 17,3 C 18,3 C 1,8 km/h (1 Bft) 100,00 %
28/05/2018 02:37 18,3 C 94 % 1016,0 hPa 0,0 mm 0,0 km/h (0 Bft) N-NO 331 0 min 0 min 0,000 mm 0,0 UV-I 0 W/m 17,3 C 18,3 C 0,0 km/h (0 Bft) 100,00 %
28/05/2018 02:36 18,3 C 95 % 1016,1 hPa 0,0 mm 0,8 km/h (0 Bft) N-NO 331 0 min 0 min 0,000 mm 0,0 UV-I 0 W/m 17,5 C 18,3 C 1,8 km/h (1 Bft) 100,00 %
28/05/2018 02:35 18,3 C 95 % 1016,0 hPa 0,0 mm 1,0 km/h (0 Bft) N-NO 331 0 min 0 min 0,000 mm 0,0 UV-I 0 W/m 17,5 C 18,3 C 3,5 km/h (1 Bft) 100,00 %
28/05/2018 02:34 18,3 C 95 % 1015,9 hPa 0,0 mm 3,3 km/h (1 Bft) N-NO 331 0 min 0 min 0,000 mm 0,0 UV-I 0 W/m 17,5 C 18,3 C 7,1 km/h (2 Bft) 100,00 %
28/05/2018 02:33 18,3 C 95 % 1015,9 hPa 0,0 mm 1,8 km/h (1 Bft) O 274 0 min 0 min 0,000 mm 0,0 UV-I 0 W/m 17,5 C 18,3 C 3,5 km/h (1 Bft) 100,00 %
28/05/2018 02:32 18,2 C 95 % 1015,9 hPa 0,0 mm 1,1 km/h (1 Bft) O 273 0 min 0 min 0,000 mm 0,0 UV-I 0 W/m 17,4 C 18,2 C 3,5 km/h (1 Bft) 100,00 %
28/05/2018 02:31 18,2 C 94 % 1015,9 hPa 0,0 mm 1,7 km/h (1 Bft) O 273 0 min 0 min 0,000 mm 0,0 UV-I 0 W/m 17,2 C 18,2 C 3,5 km/h (1 Bft) 100,00 %
28/05/2018 02:30 18,2 C 94 % 1016,0 hPa 0,0 mm 0,0 km/h (0 Bft) O 273 0 min 0 min 0,000 mm 0,0 UV-I 0 W/m 17,2 C 18,2 C 0,0 km/h (0 Bft) 100,00 %
28/05/2018 02:29 18,2 C 94 % 1016,0 hPa 0,0 mm 0,0 km/h (0 Bft) O 273 0 min 0 min 0,000 mm 0,0 UV-I 0 W/m 17,2 C 18,2 C 0,0 km/h (0 Bft) 100,00 %
28/05/2018 02:28 18,2 C 94 % 1016,0 hPa 0,0 mm 0,0 km/h (0 Bft) O 273 0 min 0 min 0,000 mm 0,0 UV-I 0 W/m 17,2 C 18,2 C 0,0 km/h (0 Bft) 100,00 %
28/05/2018 02:27 18,2 C 94 % 1016,1 hPa 0,0 mm 0,0 km/h (0 Bft) O 273 0 min 0 min 0,000 mm 0,0 UV-I 0 W/m 17,2 C 18,2 C 0,0 km/h (0 Bft) 100,00 %
28/05/2018 02:26 18,2 C 94 % 1016,0 hPa 0,0 mm 0,0 km/h (0 Bft) O 273 0 min 0 min 0,000 mm 0,0 UV-I 0 W/m 17,2 C 18,2 C 0,0 km/h (0 Bft) 100,00 %
28/05/2018 02:25 18,2 C 94 % 1016,1 hPa 0,0 mm 0,0 km/h (0 Bft) O 273 0 min 0 min 0,000 mm 0,0 UV-I 0 W/m 17,2 C 18,2 C 0,0 km/h (0 Bft) 100,00 %
28/05/2018 02:24 18,2 C 94 % 1016,1 hPa 0,0 mm 0,0 km/h (0 Bft) O 273 0 min 0 min 0,000 mm 0,0 UV-I 0 W/m 17,2 C 18,2 C 0,0 km/h (0 Bft) 100,00 %
28/05/2018 02:23 18,2 C 94 % 1016,1 hPa 0,0 mm 0,0 km/h (0 Bft) O 273 0 min 0 min 0,000 mm 0,0 UV-I 0 W/m 17,2 C 18,2 C 0,0 km/h (0 Bft) 100,00 %
28/05/2018 02:22 18,2 C 94 % 1016,1 hPa 0,0 mm 0,0 km/h (0 Bft) O 273 0 min 0 min 0,000 mm 0,0 UV-I 0 W/m 17,2 C 18,2 C 0,0 km/h (0 Bft) 100,00 %
28/05/2018 02:21 18,2 C 94 % 1016,1 hPa 0,0 mm 0,0 km/h (0 Bft) O 273 0 min 0 min 0,000 mm 0,0 UV-I 0 W/m 17,2 C 18,2 C 0,0 km/h (0 Bft) 100,00 %
28/05/2018 02:20 18,2 C 94 % 1016,0 hPa 0,0 mm 0,0 km/h (0 Bft) O 273 0 min 0 min 0,000 mm 0,0 UV-I 0 W/m 17,2 C 18,2 C 0,0 km/h (0 Bft) 100,00 %
28/05/2018 02:19 18,2 C 94 % 1016,0 hPa 0,0 mm 0,0 km/h (0 Bft) O 273 0 min 0 min 0,000 mm 0,0 UV-I 0 W/m 17,2 C 18,2 C 0,0 km/h (0 Bft) 100,00 %
28/05/2018 02:18 18,2 C 94 % 1016,0 hPa 0,0 mm 0,0 km/h (0 Bft) O 273 0 min 0 min 0,000 mm 0,0 UV-I 0 W/m 17,2 C 18,2 C 0,0 km/h (0 Bft) 100,00 %
28/05/2018 02:17 18,2 C 94 % 1016,1 hPa 0,0 mm 0,0 km/h (0 Bft) O 273 0 min 0 min 0,000 mm 0,0 UV-I 0 W/m 17,2 C 18,2 C 0,0 km/h (0 Bft) 100,00 %
28/05/2018 02:16 18,2 C 94 % 1016,1 hPa 0,0 mm 0,0 km/h (0 Bft) O 273 0 min 0 min 0,000 mm 0,0 UV-I 0 W/m 17,2 C 18,2 C 0,0 km/h (0 Bft) 100,00 %
28/05/2018 02:15 18,2 C 94 % 1016,1 hPa 0,0 mm 0,0 km/h (0 Bft) O 273 0 min 0 min 0,000 mm 0,0 UV-I 0 W/m 17,2 C 18,2 C 0,0 km/h (0 Bft) 100,00 %
28/05/2018 02:14 18,2 C 94 % 1016,1 hPa 0,0 mm 0,0 km/h (0 Bft) O 273 0 min 0 min 0,000 mm 0,0 UV-I 0 W/m 17,2 C 18,2 C 0,0 km/h (0 Bft) 100,00 %
28/05/2018 02:13 18,2 C 94 % 1016,1 hPa 0,0 mm 0,0 km/h (0 Bft) O 273 0 min 0 min 0,000 mm 0,0 UV-I 0 W/m 17,2 C 18,2 C 0,0 km/h (0 Bft) 100,00 %
28/05/2018 02:12 18,2 C 94 % 1016,1 hPa 0,0 mm 0,0 km/h (0 Bft) O 273 0 min 0 min 0,000 mm 0,0 UV-I 0 W/m 17,2 C 18,2 C 0,0 km/h (0 Bft) 100,00 %
28/05/2018 02:11 18,2 C 94 % 1016,1 hPa 0,0 mm 0,0 km/h (0 Bft) O 273 0 min 0 min 0,000 mm 0,0 UV-I 0 W/m 17,2 C 18,2 C 0,0 km/h (0 Bft) 100,00 %
28/05/2018 02:10 18,2 C 94 % 1016,0 hPa 0,0 mm 0,0 km/h (0 Bft) O 273 0 min 0 min 0,000 mm 0,0 UV-I 0 W/m 17,2 C 18,2 C 0,0 km/h (0 Bft) 95,83 %
28/05/2018 02:09 18,2 C 94 % 1016,0 hPa 0,0 mm 0,0 km/h (0 Bft) O 273 0 min 0 min 0,000 mm 0,0 UV-I 0 W/m 17,2 C 18,2 C 0,0 km/h (0 Bft) 100,00 %
28/05/2018 02:08 18,2 C 94 % 1016,0 hPa 0,0 mm 0,0 km/h (0 Bft) O 273 0 min 0 min 0,000 mm 0,0 UV-I 0 W/m 17,2 C 18,2 C 0,0 km/h (0 Bft) 100,00 %
28/05/2018 02:07 18,2 C 94 % 1016,0 hPa 0,0 mm 0,0 km/h (0 Bft) O 273 0 min 0 min 0,000 mm 0,0 UV-I 0 W/m 17,2 C 18,2 C 0,0 km/h (0 Bft) 100,00 %
28/05/2018 02:06 18,2 C 94 % 1016,0 hPa 0,0 mm 0,0 km/h (0 Bft) O 273 0 min 0 min 0,000 mm 0,0 UV-I 0 W/m 17,2 C 18,2 C 0,0 km/h (0 Bft) 100,00 %
28/05/2018 02:05 18,2 C 94 % 1015,9 hPa 0,0 mm 0,0 km/h (0 Bft) O 273 0 min 0 min 0,000 mm 0,0 UV-I 0 W/m 17,2 C 18,2 C 0,0 km/h (0 Bft) 100,00 %
28/05/2018 02:04 18,2 C 94 % 1016,0 hPa 0,0 mm 0,0 km/h (0 Bft) O 273 0 min 0 min 0,000 mm 0,0 UV-I 0 W/m 17,2 C 18,2 C 0,0 km/h (0 Bft) 95,65 %
28/05/2018 02:03 18,2 C 94 % 1015,9 hPa 0,0 mm 0,0 km/h (0 Bft) O 273 0 min 0 min 0,000 mm 0,0 UV-I 0 W/m 17,2 C 18,2 C 0,0 km/h (0 Bft) 96,15 %
28/05/2018 02:02 18,2 C 94 % 1015,9 hPa 0,0 mm 0,0 km/h (0 Bft) O 273 0 min 0 min 0,000 mm 0,0 UV-I 0 W/m 17,2 C 18,2 C 0,0 km/h (0 Bft) 100,00 %
28/05/2018 02:01 18,3 C 94 % 1015,9 hPa 0,0 mm 0,0 km/h (0 Bft) O 273 0 min 0 min 0,000 mm 0,0 UV-I 0 W/m 17,3 C 18,3 C 0,0 km/h (0 Bft) 100,00 %
28/05/2018 02:00 18,3 C 94 % 1015,9 hPa 0,0 mm 0,0 km/h (0 Bft) O 273 0 min 0 min 0,000 mm 0,0 UV-I 0 W/m 17,3 C 18,3 C 0,0 km/h (0 Bft) 93,75 %
28/05/2018 01:59 18,3 C 94 % 1015,9 hPa 0,0 mm 0,0 km/h (0 Bft) O 273 0 min 0 min 0,000 mm 0,0 UV-I 0 W/m 17,3 C 18,3 C 0,0 km/h (0 Bft) 96,15 %
28/05/2018 01:58 18,3 C 94 % 1015,9 hPa 0,0 mm 0,0 km/h (0 Bft) O 273 0 min 0 min 0,000 mm 0,0 UV-I 0 W/m 17,3 C 18,3 C 0,0 km/h (0 Bft) 100,00 %
28/05/2018 01:57 18,3 C 94 % 1015,9 hPa 0,0 mm 0,0 km/h (0 Bft) O 273 0 min 0 min 0,000 mm 0,0 UV-I 0 W/m 17,3 C 18,3 C 0,0 km/h (0 Bft) 100,00 %
28/05/2018 01:56 18,3 C 94 % 1015,9 hPa 0,0 mm 0,0 km/h (0 Bft) O 273 0 min 0 min 0,000 mm 0,0 UV-I 0 W/m 17,3 C 18,3 C 0,0 km/h (0 Bft) 100,00 %
28/05/2018 01:55 18,4 C 94 % 1015,9 hPa 0,0 mm 0,0 km/h (0 Bft) O 275 0 min 0 min 0,000 mm 0,0 UV-I 0 W/m 17,4 C 18,4 C 0,0 km/h (0 Bft) 100,00 %
28/05/2018 01:54 18,4 C 94 % 1016,0 hPa 0,0 mm 0,0 km/h (0 Bft) O 275 0 min 0 min 0,000 mm 0,0 UV-I 0 W/m 17,4 C 18,4 C 0,0 km/h (0 Bft) 100,00 %
28/05/2018 01:53 18,4 C 94 % 1015,9 hPa 0,0 mm 0,0 km/h (0 Bft) O 275 0 min 0 min 0,000 mm 0,0 UV-I 0 W/m 17,4 C 18,4 C 0,0 km/h (0 Bft) 100,00 %
28/05/2018 01:52 18,5 C 94 % 1015,9 hPa 0,0 mm 0,0 km/h (0 Bft) O 275 0 min 0 min 0,000 mm 0,0 UV-I 0 W/m 17,5 C 18,5 C 0,0 km/h (0 Bft) 100,00 %
28/05/2018 01:51 18,6 C 94 % 1016,0 hPa 0,0 mm 0,0 km/h (0 Bft) O 275 0 min 0 min 0,000 mm 0,0 UV-I 0 W/m 17,6 C 18,6 C 0,0 km/h (0 Bft) 100,00 %
28/05/2018 01:50 18,6 C 94 % 1015,9 hPa 0,0 mm 0,2 km/h (0 Bft) O 275 0 min 0 min 0,000 mm 0,0 UV-I 0 W/m 17,6 C 18,6 C 1,8 km/h (1 Bft) 96,00 %
28/05/2018 01:49 18,6 C 94 % 1015,9 hPa 0,0 mm 0,8 km/h (0 Bft) O 275 0 min 0 min 0,000 mm 0,0 UV-I 0 W/m 17,6 C 18,6 C 1,8 km/h (1 Bft) 95,65 %
28/05/2018 01:48 18,7 C 94 % 1015,9 hPa 0,0 mm 0,3 km/h (0 Bft) O 275 0 min 0 min 0,000 mm 0,0 UV-I 0 W/m 17,7 C 18,7 C 1,8 km/h (1 Bft) 100,00 %
28/05/2018 01:47 18,7 C 94 % 1015,9 hPa 0,0 mm 0,7 km/h (0 Bft) O 275 0 min 0 min 0,000 mm 0,0 UV-I 0 W/m 17,7 C 18,7 C 1,8 km/h (1 Bft) 96,15 %
28/05/2018 01:46 18,7 C 94 % 1015,9 hPa 0,0 mm 0,6 km/h (0 Bft) O 275 0 min 0 min 0,000 mm 0,0 UV-I 0 W/m 17,7 C 18,7 C 3,5 km/h (1 Bft) 100,00 %
28/05/2018 01:45 18,7 C 94 % 1015,8 hPa 0,0 mm 2,1 km/h (1 Bft) O 274 0 min 0 min 0,000 mm 0,0 UV-I 0 W/m 17,7 C 18,7 C 5,3 km/h (1 Bft) 96,30 %
28/05/2018 01:44 18,8 C 94 % 1015,9 hPa 0,0 mm 0,9 km/h (0 Bft) O 274 0 min 0 min 0,000 mm 0,0 UV-I 0 W/m 17,8 C 18,8 C 3,5 km/h (1 Bft) 100,00 %
28/05/2018 01:43 18,8 C 94 % 1015,9 hPa 0,0 mm 0,1 km/h (0 Bft) O 274 0 min 0 min 0,000 mm 0,0 UV-I 0 W/m 17,8 C 18,8 C 1,8 km/h (1 Bft) 95,83 %
28/05/2018 01:42 18,8 C 94 % 1015,9 hPa 0,0 mm 0,5 km/h (0 Bft) O 274 0 min 0 min 0,000 mm 0,0 UV-I 0 W/m 17,8 C 18,8 C 1,8 km/h (1 Bft) 100,00 %
28/05/2018 01:41 18,8 C 94 % 1015,9 hPa 0,0 mm 0,0 km/h (0 Bft) O 274 0 min 0 min 0,000 mm 0,0 UV-I 0 W/m 17,8 C 18,8 C 0,0 km/h (0 Bft) 95,83 %
28/05/2018 01:40 18,8 C 94 % 1015,9 hPa 0,0 mm 0,0 km/h (0 Bft) O 274 0 min 0 min 0,000 mm 0,0 UV-I 0 W/m 17,8 C 18,8 C 0,0 km/h (0 Bft) 96,88 %
28/05/2018 01:39 18,8 C 94 % 1015,9 hPa 0,0 mm 1,9 km/h (1 Bft) O 274 0 min 0 min 0,000 mm 0,0 UV-I 0 W/m 17,8 C 18,8 C 3,5 km/h (1 Bft) 94,12 %
28/05/2018 01:38 18,8 C 94 % 1015,9 hPa 0,0 mm 0,2 km/h (0 Bft) S-SO 208 0 min 0 min 0,000 mm 0,0 UV-I 0 W/m 17,8 C 18,8 C 1,8 km/h (1 Bft) 95,83 %
28/05/2018 01:37 18,8 C 94 % 1015,9 hPa 0,0 mm 1,8 km/h (1 Bft) S-SO 207 0 min 0 min 0,000 mm 0,0 UV-I 0 W/m 17,8 C 18,8 C 3,5 km/h (1 Bft) 100,00 %
28/05/2018 01:36 18,8 C 94 % 1015,9 hPa 0,0 mm 1,0 km/h (0 Bft) S-SO 207 0 min 0 min 0,000 mm 0,0 UV-I 0 W/m 17,8 C 18,8 C 3,5 km/h (1 Bft) 92,59 %
28/05/2018 01:35 18,8 C 94 % 1015,9 hPa 0,0 mm 0,0 km/h (0 Bft) S-SO 194 0 min 0 min 0,000 mm 0,0 UV-I 0 W/m 17,8 C 18,8 C 0,0 km/h (0 Bft) 100,00 %
28/05/2018 01:34 18,8 C 94 % 1015,9 hPa 0,0 mm 0,0 km/h (0 Bft) S-SO 194 0 min 0 min 0,000 mm 0,0 UV-I 0 W/m 17,8 C 18,8 C 0,0 km/h (0 Bft) 97,73 %
28/05/2018 01:33 18,8 C 94 % 1015,9 hPa 0,0 mm 0,0 km/h (0 Bft) S-SO 194 0 min 0 min 0,000 mm 0,0 UV-I 0 W/m 17,8 C 18,8 C 0,0 km/h (0 Bft) 98,43 %
28/05/2018 01:32 18,8 C 94 % 1015,8 hPa 0,0 mm 0,0 km/h (0 Bft) S-SO 194 0 min 0 min 0,000 mm 0,0 UV-I 0 W/m 17,8 C 18,8 C 0,0 km/h (0 Bft) 95,65 %
28/05/2018 01:31 18,8 C 94 % 1015,8 hPa 0,0 mm 0,0 km/h (0 Bft) S-SO 194 0 min 0 min 0,000 mm 0,0 UV-I 0 W/m 17,8 C 18,8 C 0,0 km/h (0 Bft) 95,83 %
28/05/2018 01:30 18,7 C 94 % 1015,8 hPa 0,0 mm 0,0 km/h (0 Bft) S-SO 194 0 min 0 min 0,000 mm 0,0 UV-I 0 W/m 17,7 C 18,7 C 0,0 km/h (0 Bft) 100,00 %
28/05/2018 01:29 18,7 C 94 % 1015,8 hPa 0,0 mm 0,0 km/h (0 Bft) S-SO 194 0 min 0 min 0,000 mm 0,0 UV-I 0 W/m 17,7 C 18,7 C 0,0 km/h (0 Bft) 95,83 %
28/05/2018 01:28 18,7 C 94 % 1015,8 hPa 0,0 mm 0,0 km/h (0 Bft) S-SO 194 0 min 0 min 0,000 mm 0,0 UV-I 0 W/m 17,7 C 18,7 C 0,0 km/h (0 Bft) 100,00 %
28/05/2018 01:27 18,7 C 94 % 1015,8 hPa 0,0 mm 0,0 km/h (0 Bft) S-SO 194 0 min 0 min 0,000 mm 0,0 UV-I 0 W/m 17,7 C 18,7 C 0,0 km/h (0 Bft) 96,15 %
28/05/2018 01:26 18,7 C 94 % 1015,8 hPa 0,0 mm 0,0 km/h (0 Bft) S-SO 194 0 min 0 min 0,000 mm 0,0 UV-I 0 W/m 17,7 C 18,7 C 0,0 km/h (0 Bft) 100,00 %
28/05/2018 01:25 18,7 C 94 % 1015,8 hPa 0,0 mm 0,0 km/h (0 Bft) S-SO 194 0 min 0 min 0,000 mm 0,0 UV-I 0 W/m 17,7 C 18,7 C 0,0 km/h (0 Bft) 92,86 %
28/05/2018 01:24 18,7 C 94 % 1015,8 hPa 0,0 mm 0,0 km/h (0 Bft) S-SO 194 0 min 0 min 0,000 mm 0,0 UV-I 0 W/m 17,7 C 18,7 C 0,0 km/h (0 Bft) 100,00 %
28/05/2018 01:23 18,7 C 94 % 1015,8 hPa 0,0 mm 0,0 km/h (0 Bft) S-SO 194 0 min 0 min 0,000 mm 0,0 UV-I 0 W/m 17,7 C 18,7 C 0,0 km/h (0 Bft) 97,30 %
28/05/2018 01:22 18,7 C 94 % 1015,8 hPa 0,0 mm 0,0 km/h (0 Bft) S-SO 194 0 min 0 min 0,000 mm 0,0 UV-I 0 W/m 17,7 C 18,7 C 0,0 km/h (0 Bft) 100,00 %
28/05/2018 01:21 18,7 C 94 % 1015,8 hPa 0,0 mm 0,0 km/h (0 Bft) S-SO 194 0 min 0 min 0,000 mm 0,0 UV-I 0 W/m 17,7 C 18,7 C 0,0 km/h (0 Bft) 96,15 %
28/05/2018 01:20 18,7 C 94 % 1015,7 hPa 0,0 mm 0,0 km/h (0 Bft) S-SO 194 0 min 0 min 0,000 mm 0,0 UV-I 0 W/m 17,7 C 18,7 C 0,0 km/h (0 Bft) 95,83 %
28/05/2018 01:19 18,7 C 94 % 1015,8 hPa 0,0 mm 0,6 km/h (0 Bft) S-SO 194 0 min 0 min 0,000 mm 0,0 UV-I 0 W/m 17,7 C 18,7 C 1,8 km/h (1 Bft) 100,00 %
28/05/2018 01:18 18,7 C 94 % 1015,7 hPa 0,0 mm 2,4 km/h (1 Bft) S-SO 194 0 min 0 min 0,000 mm 0,0 UV-I 0 W/m 17,7 C 18,7 C 3,5 km/h (1 Bft) 86,67 %
28/05/2018 01:17 18,7 C 94 % 1015,7 hPa 0,0 mm 2,1 km/h (1 Bft) S-SO 194 0 min 0 min 0,000 mm 0,0 UV-I 0 W/m 17,7 C 18,7 C 3,5 km/h (1 Bft) 100,00 %
28/05/2018 01:16 18,7 C 94 % 1015,8 hPa 0,0 mm 3,0 km/h (1 Bft) S-SO 194 0 min 0 min 0,000 mm 0,0 UV-I 0 W/m 17,7 C 18,7 C 5,3 km/h (1 Bft) 91,30 %
28/05/2018 01:15 18,7 C 94 % 1015,7 hPa 0,0 mm 4,8 km/h (1 Bft) S-SO 194 0 min 0 min 0,000 mm 0,0 UV-I 0 W/m 17,7 C 18,7 C 7,1 km/h (2 Bft) 100,00 %
28/05/2018 01:14 18,7 C 94 % 1015,8 hPa 0,0 mm 2,9 km/h (1 Bft) S 184 0 min 0 min 0,000 mm 0,0 UV-I 0 W/m 17,7 C 18,7 C 5,3 km/h (1 Bft) 95,65 %
28/05/2018 01:13 18,7 C 94 % 1015,8 hPa 0,0 mm 2,9 km/h (1 Bft) S 175 0 min 0 min 0,000 mm 0,0 UV-I 0 W/m 17,7 C 18,7 C 3,5 km/h (1 Bft) 96,15 %
28/05/2018 01:12 18,7 C 94 % 1015,8 hPa 0,0 mm 3,1 km/h (1 Bft) S 174 0 min 0 min 0,000 mm 0,0 UV-I 0 W/m 17,7 C 18,7 C 5,3 km/h (1 Bft) 100,00 %
28/05/2018 01:11 18,8 C 94 % 1015,8 hPa 0,0 mm 3,5 km/h (1 Bft) SE 136 0 min 0 min 0,000 mm 0,0 UV-I 0 W/m 17,8 C 18,8 C 5,3 km/h (1 Bft) 96,67 %
28/05/2018 01:10 18,8 C 94 % 1015,8 hPa 0,0 mm 2,6 km/h (1 Bft) SE 129 0 min 0 min 0,000 mm 0,0 UV-I 0 W/m 17,8 C 18,8 C 5,3 km/h (1 Bft) 100,00 %
28/05/2018 01:09 18,8 C 93 % 1015,8 hPa 0,0 mm 0,0 km/h (0 Bft) NE 48 0 min 0 min 0,000 mm 0,0 UV-I 0 W/m 17,6 C 18,8 C 0,0 km/h (0 Bft) 92,31 %
28/05/2018 01:08 18,8 C 93 % 1015,8 hPa 0,0 mm 0,0 km/h (0 Bft) NE 47 0 min 0 min 0,000 mm 0,0 UV-I 0 W/m 17,6 C 18,8 C 0,0 km/h (0 Bft) 100,00 %
28/05/2018 01:07 18,8 C 93 % 1015,8 hPa 0,0 mm 0,0 km/h (0 Bft) NE 47 0 min 0 min 0,000 mm 0,0 UV-I 0 W/m 17,6 C 18,8 C 0,0 km/h (0 Bft) 91,67 %
28/05/2018 01:06 18,8 C 93 % 1015,7 hPa 0,0 mm 1,5 km/h (1 Bft) NE 47 0 min 0 min 0,000 mm 0,0 UV-I 0 W/m 17,6 C 18,8 C 5,3 km/h (1 Bft) 100,00 %
28/05/2018 01:05 18,8 C 93 % 1015,7 hPa 0,0 mm 4,1 km/h (1 Bft) NE 47 0 min 0 min 0,000 mm 0,0 UV-I 0 W/m 17,6 C 18,8 C 5,3 km/h (1 Bft) 100,00 %
28/05/2018 01:04 18,8 C 93 % 1015,7 hPa 0,0 mm 2,7 km/h (1 Bft) NE 40 0 min 0 min 0,000 mm 0,0 UV-I 0 W/m 17,6 C 18,8 C 3,5 km/h (1 Bft) 100,00 %
28/05/2018 01:03 18,9 C 93 % 1015,8 hPa 0,0 mm 0,8 km/h (0 Bft) NE 41 0 min 0 min 0,000 mm 0,0 UV-I 0 W/m 17,7 C 18,9 C 3,5 km/h (1 Bft) 100,00 %
28/05/2018 01:02 18,9 C 94 % 1015,8 hPa 0,0 mm 1,8 km/h (1 Bft) NE 42 0 min 0 min 0,000 mm 0,0 UV-I 0 W/m 17,9 C 18,9 C 3,5 km/h (1 Bft) 96,15 %
28/05/2018 01:01 18,9 C 94 % 1015,7 hPa 0,0 mm 2,8 km/h (1 Bft) NE 42 0 min 0 min 0,000 mm 0,0 UV-I 0 W/m 17,9 C 18,9 C 5,3 km/h (1 Bft) 100,00 %
28/05/2018 01:00 18,9 C 94 % 1015,6 hPa 0,0 mm 0,0 km/h (0 Bft) E-NE 76 0 min 0 min 0,000 mm 0,0 UV-I 0 W/m 17,9 C 18,9 C 0,0 km/h (0 Bft) 100,00 %
28/05/2018 00:59 18,9 C 93 % 1015,6 hPa 0,0 mm 0,0 km/h (0 Bft) E-NE 76 0 min 0 min 0,000 mm 0,0 UV-I 0 W/m 17,7 C 18,9 C 0,0 km/h (0 Bft) 95,65 %
28/05/2018 00:58 18,9 C 93 % 1015,6 hPa 0,0 mm 0,0 km/h (0 Bft) E-SE 111 0 min 0 min 0,000 mm 0,0 UV-I 0 W/m 17,7 C 18,9 C 0,0 km/h (0 Bft) 100,00 %
28/05/2018 00:57 18,9 C 93 % 1015,5 hPa 0,0 mm 0,0 km/h (0 Bft) E-SE 115 0 min 0 min 0,000 mm 0,0 UV-I 0 W/m 17,7 C 18,9 C 0,0 km/h (0 Bft) 100,00 %
28/05/2018 00:56 18,9 C 93 % 1015,5 hPa 0,0 mm 0,0 km/h (0 Bft) E-SE 115 0 min 0 min 0,000 mm 0,0 UV-I 0 W/m 17,7 C 18,9 C 0,0 km/h (0 Bft) 100,00 %
28/05/2018 00:55 19,0 C 93 % 1015,5 hPa 0,0 mm 0,0 km/h (0 Bft) E-SE 115 0 min 0 min 0,000 mm 0,0 UV-I 0 W/m 17,8 C 19,0 C 0,0 km/h (0 Bft) 95,83 %
28/05/2018 00:54 19,0 C 93 % 1015,5 hPa 0,0 mm 0,0 km/h (0 Bft) E-SE 115 0 min 0 min 0,000 mm 0,0 UV-I 0 W/m 17,8 C 19,0 C 0,0 km/h (0 Bft) 100,00 %
28/05/2018 00:53 19,1 C 93 % 1015,5 hPa 0,0 mm 0,0 km/h (0 Bft) E-SE 115 0 min 0 min 0,000 mm 0,0 UV-I 0 W/m 17,9 C 19,1 C 0,0 km/h (0 Bft) 100,00 %
28/05/2018 00:52 19,1 C 93 % 1015,5 hPa 0,0 mm 0,0 km/h (0 Bft) E-SE 115 0 min 0 min 0,000 mm 0,0 UV-I 0 W/m 17,9 C 19,1 C 0,0 km/h (0 Bft) 100,00 %
28/05/2018 00:51 19,1 C 93 % 1015,6 hPa 0,0 mm 0,0 km/h (0 Bft) E-SE 115 0 min 0 min 0,000 mm 0,0 UV-I 0 W/m 17,9 C 19,1 C 0,0 km/h (0 Bft) 100,00 %
28/05/2018 00:50 19,1 C 93 % 1015,6 hPa 0,0 mm 0,0 km/h (0 Bft) E-SE 115 0 min 0 min 0,000 mm 0,0 UV-I 0 W/m 17,9 C 19,1 C 0,0 km/h (0 Bft) 100,00 %
28/05/2018 00:49 19,1 C 93 % 1015,6 hPa 0,0 mm 0,0 km/h (0 Bft) E-SE 115 0 min 0 min 0,000 mm 0,0 UV-I 0 W/m 17,9 C 19,1 C 0,0 km/h (0 Bft) 100,00 %
28/05/2018 00:48 19,1 C 93 % 1015,6 hPa 0,0 mm 0,0 km/h (0 Bft) E-SE 115 0 min 0 min 0,000 mm 0,0 UV-I 0 W/m 17,9 C 19,1 C 0,0 km/h (0 Bft) 96,00 %
28/05/2018 00:47 19,1 C 93 % 1015,6 hPa 0,0 mm 0,2 km/h (0 Bft) E-SE 115 0 min 0 min 0,000 mm 0,0 UV-I 0 W/m 17,9 C 19,1 C 1,8 km/h (1 Bft) 100,00 %
28/05/2018 00:46 19,1 C 93 % 1015,6 hPa 0,0 mm 0,0 km/h (0 Bft) E-SE 115 0 min 0 min 0,000 mm 0,0 UV-I 0 W/m 17,9 C 19,1 C 0,0 km/h (0 Bft) 100,00 %
28/05/2018 00:45 19,1 C 93 % 1015,7 hPa 0,0 mm 0,0 km/h (0 Bft) E-SE 115 0 min 0 min 0,000 mm 0,0 UV-I 0 W/m 17,9 C 19,1 C 0,0 km/h (0 Bft) 100,00 %
28/05/2018 00:44 19,1 C 93 % 1015,7 hPa 0,0 mm 0,0 km/h (0 Bft) E-SE 115 0 min 0 min 0,000 mm 0,0 UV-I 0 W/m 17,9 C 19,1 C 0,0 km/h (0 Bft) 96,00 %
28/05/2018 00:43 19,1 C 93 % 1015,7 hPa 0,0 mm 0,0 km/h (0 Bft) E-SE 115 0 min 0 min 0,000 mm 0,0 UV-I 0 W/m 17,9 C 19,1 C 0,0 km/h (0 Bft) 95,65 %
28/05/2018 00:42 19,0 C 93 % 1015,7 hPa 0,0 mm 0,0 km/h (0 Bft) E-SE 115 0 min 0 min 0,000 mm 0,0 UV-I 0 W/m 17,8 C 19,0 C 0,0 km/h (0 Bft) 100,00 %
28/05/2018 00:41 19,0 C 93 % 1015,7 hPa 0,0 mm 0,0 km/h (0 Bft) E-SE 115 0 min 0 min 0,000 mm 0,0 UV-I 0 W/m 17,8 C 19,0 C 0,0 km/h (0 Bft) 100,00 %
28/05/2018 00:40 19,0 C 92 % 1015,7 hPa 0,0 mm 0,1 km/h (0 Bft) E-SE 115 0 min 0 min 0,000 mm 0,0 UV-I 0 W/m 17,7 C 19,0 C 1,8 km/h (1 Bft) 100,00 %
28/05/2018 00:39 18,9 C 92 % 1015,7 hPa 0,0 mm 0,0 km/h (0 Bft) E-SE 115 0 min 0 min 0,000 mm 0,0 UV-I 0 W/m 17,6 C 18,9 C 0,0 km/h (0 Bft) 100,00 %
28/05/2018 00:38 18,9 C 92 % 1015,8 hPa 0,0 mm 0,0 km/h (0 Bft) E-SE 115 0 min 0 min 0,000 mm 0,0 UV-I 0 W/m 17,6 C 18,9 C 0,0 km/h (0 Bft) 91,67 %
28/05/2018 00:37 18,9 C 92 % 1015,8 hPa 0,0 mm 0,0 km/h (0 Bft) E-SE 115 0 min 0 min 0,000 mm 0,0 UV-I 0 W/m 17,6 C 18,9 C 0,0 km/h (0 Bft) 96,43 %
28/05/2018 00:36 18,9 C 92 % 1015,8 hPa 0,0 mm 0,0 km/h (0 Bft) E-SE 115 0 min 0 min 0,000 mm 0,0 UV-I 0 W/m 17,6 C 18,9 C 0,0 km/h (0 Bft) 100,00 %
28/05/2018 00:35 18,9 C 91 % 1015,8 hPa 0,0 mm 0,8 km/h (0 Bft) E-SE 115 0 min 0 min 0,000 mm 0,0 UV-I 0 W/m 17,4 C 18,9 C 3,5 km/h (1 Bft) 100,00 %
28/05/2018 00:34 18,9 C 91 % 1015,9 hPa 0,0 mm 0,4 km/h (0 Bft) E-SE 115 0 min 0 min 0,000 mm 0,0 UV-I 0 W/m 17,4 C 18,9 C 1,8 km/h (1 Bft) 100,00 %
28/05/2018 00:33 18,9 C 91 % 1015,9 hPa 0,0 mm 2,4 km/h (1 Bft) E-SE 115 0 min 0 min 0,000 mm 0,0 UV-I 0 W/m 17,4 C 18,9 C 5,3 km/h (1 Bft) 100,00 %
28/05/2018 00:32 19,0 C 91 % 1015,9 hPa 0,0 mm 3,4 km/h (1 Bft) E-SE 122 0 min 0 min 0,000 mm 0,0 UV-I 0 W/m 17,5 C 19,0 C 12,4 km/h (2 Bft) 100,00 %
28/05/2018 00:31 19,1 C 91 % 1015,9 hPa 0,0 mm 0,0 km/h (0 Bft) SE 128 0 min 0 min 0,000 mm 0,0 UV-I 0 W/m 17,6 C 19,1 C 0,0 km/h (0 Bft) 100,00 %
28/05/2018 00:30 19,1 C 91 % 1015,9 hPa 0,0 mm 0,0 km/h (0 Bft) SE 128 0 min 0 min 0,000 mm 0,0 UV-I 0 W/m 17,6 C 19,1 C 0,0 km/h (0 Bft) 100,00 %
28/05/2018 00:29 19,1 C 91 % 1015,8 hPa 0,0 mm 0,0 km/h (0 Bft) SE 128 0 min 0 min 0,000 mm 0,0 UV-I 0 W/m 17,6 C 19,1 C 0,0 km/h (0 Bft) 96,00 %
28/05/2018 00:28 19,2 C 90 % 1015,8 hPa 0,0 mm 0,0 km/h (0 Bft) SE 128 0 min 0 min 0,000 mm 0,0 UV-I 0 W/m 17,5 C 19,2 C 0,0 km/h (0 Bft) 100,00 %
28/05/2018 00:27 19,2 C 90 % 1015,8 hPa 0,0 mm 0,0 km/h (0 Bft) SE 128 0 min 0 min 0,000 mm 0,0 UV-I 0 W/m 17,5 C 19,2 C 0,0 km/h (0 Bft) 100,00 %
28/05/2018 00:26 19,2 C 90 % 1015,8 hPa 0,0 mm 0,0 km/h (0 Bft) SE 128 0 min 0 min 0,000 mm 0,0 UV-I 0 W/m 17,5 C 19,2 C 0,0 km/h (0 Bft) 100,00 %
28/05/2018 00:25 19,3 C 90 % 1015,8 hPa 0,0 mm 0,0 km/h (0 Bft) SE 128 0 min 0 min 0,000 mm 0,0 UV-I 0 W/m 17,6 C 19,3 C 0,0 km/h (0 Bft) 100,00 %
28/05/2018 00:24 19,3 C 90 % 1015,8 hPa 0,0 mm 0,0 km/h (0 Bft) SE 128 0 min 0 min 0,000 mm 0,0 UV-I 0 W/m 17,6 C 19,3 C 0,0 km/h (0 Bft) 100,00 %
28/05/2018 00:23 19,4 C 90 % 1015,8 hPa 0,0 mm 0,0 km/h (0 Bft) SE 128 0 min 0 min 0,000 mm 0,0 UV-I 0 W/m 17,7 C 19,4 C 0,0 km/h (0 Bft) 100,00 %
28/05/2018 00:22 19,4 C 90 % 1015,9 hPa 0,0 mm 0,2 km/h (0 Bft) SE 128 0 min 0 min 0,000 mm 0,0 UV-I 0 W/m 17,7 C 19,4 C 1,8 km/h (1 Bft) 100,00 %
28/05/2018 00:21 19,5 C 90 % 1015,8 hPa 0,0 mm 1,9 km/h (1 Bft) SE 128 0 min 0 min 0,000 mm 0,0 UV-I 0 W/m 17,8 C 19,5 C 3,5 km/h (1 Bft) 100,00 %
28/05/2018 00:20 19,6 C 90 % 1015,8 hPa 0,0 mm 2,0 km/h (1 Bft) E-SE 107 0 min 0 min 0,000 mm 0,0 UV-I 0 W/m 17,9 C 19,6 C 3,5 km/h (1 Bft) 91,67 %
28/05/2018 00:19 19,6 C 90 % 1015,9 hPa 0,0 mm 3,0 km/h (1 Bft) E-SE 107 0 min 0 min 0,000 mm 0,0 UV-I 0 W/m 17,9 C 19,6 C 5,3 km/h (1 Bft) 100,00 %
28/05/2018 00:18 19,6 C 90 % 1015,8 hPa 0,0 mm 2,4 km/h (1 Bft) E 100 0 min 0 min 0,000 mm 0,0 UV-I 0 W/m 17,9 C 19,6 C 7,1 km/h (2 Bft) 100,00 %
28/05/2018 00:17 19,7 C 89 % 1015,8 hPa 0,0 mm 0,0 km/h (0 Bft) O-NO 300 0 min 0 min 0,000 mm 0,0 UV-I 0 W/m 17,8 C 19,7 C 0,0 km/h (0 Bft) 100,00 %
28/05/2018 00:16 19,7 C 89 % 1015,8 hPa 0,0 mm 0,0 km/h (0 Bft) O-NO 300 0 min 0 min 0,000 mm 0,0 UV-I 0 W/m 17,8 C 19,7 C 0,0 km/h (0 Bft) 100,00 %
28/05/2018 00:15 19,7 C 89 % 1015,7 hPa 0,0 mm 0,0 km/h (0 Bft) O-NO 300 0 min 0 min 0,000 mm 0,0 UV-I 0 W/m 17,8 C 19,7 C 0,0 km/h (0 Bft) 100,00 %
28/05/2018 00:14 19,7 C 89 % 1015,7 hPa 0,0 mm 0,0 km/h (0 Bft) O-NO 300 0 min 0 min 0,000 mm 0,0 UV-I 0 W/m 17,8 C 19,7 C 0,0 km/h (0 Bft) 100,00 %
28/05/2018 00:13 19,8 C 89 % 1015,7 hPa 0,0 mm 0,0 km/h (0 Bft) O-NO 300 0 min 0 min 0,000 mm 0,0 UV-I 0 W/m 17,9 C 19,8 C 0,0 km/h (0 Bft) 100,00 %
28/05/2018 00:12 19,8 C 89 % 1015,7 hPa 0,0 mm 0,0 km/h (0 Bft) O-NO 300 0 min 0 min 0,000 mm 0,0 UV-I 0 W/m 17,9 C 19,8 C 0,0 km/h (0 Bft) 100,00 %
28/05/2018 00:11 19,9 C 89 % 1015,7 hPa 0,0 mm 0,0 km/h (0 Bft) O-NO 300 0 min 0 min 0,000 mm 0,0 UV-I 0 W/m 18,0 C 19,9 C 0,0 km/h (0 Bft) 95,83 %
28/05/2018 00:10 19,9 C 89 % 1015,7 hPa 0,0 mm 0,0 km/h (0 Bft) O-NO 300 0 min 0 min 0,000 mm 0,0 UV-I 0 W/m 18,0 C 19,9 C 0,0 km/h (0 Bft) 100,00 %
28/05/2018 00:09 19,9 C 89 % 1015,7 hPa 0,0 mm 0,0 km/h (0 Bft) O-NO 300 0 min 0 min 0,000 mm 0,0 UV-I 0 W/m 18,0 C 19,9 C 0,0 km/h (0 Bft) 100,00 %
28/05/2018 00:08 19,9 C 89 % 1015,7 hPa 0,0 mm 0,0 km/h (0 Bft) O-NO 300 0 min 0 min 0,000 mm 0,0 UV-I 0 W/m 18,0 C 19,9 C 0,0 km/h (0 Bft) 100,00 %
28/05/2018 00:07 19,9 C 88 % 1015,7 hPa 0,0 mm 0,0 km/h (0 Bft) O-NO 300 0 min 0 min 0,000 mm 0,0 UV-I 0 W/m 17,8 C 19,9 C 0,0 km/h (0 Bft) 100,00 %
28/05/2018 00:06 19,9 C 88 % 1015,7 hPa 0,0 mm 0,0 km/h (0 Bft) O-NO 300 0 min 0 min 0,000 mm 0,0 UV-I 0 W/m 17,8 C 19,9 C 0,0 km/h (0 Bft) 100,00 %
28/05/2018 00:05 19,9 C 88 % 1015,8 hPa 0,0 mm 0,0 km/h (0 Bft) O-NO 300 0 min 0 min 0,000 mm 0,0 UV-I 0 W/m 17,8 C 19,9 C 0,0 km/h (0 Bft) 100,00 %
28/05/2018 00:03 20,0 C 88 % 1015,8 hPa 0,0 mm 0,0 km/h (0 Bft) O-NO 300 0 min 0 min 0,000 mm 0,0 UV-I 0 W/m 17,9 C 20,0 C 0,0 km/h (0 Bft) 100,00 %
28/05/2018 00:02 20,0 C 88 % 1015,8 hPa 0,0 mm 0,0 km/h (0 Bft) O-NO 300 0 min 0 min 0,000 mm 0,0 UV-I 0 W/m 17,9 C 20,0 C 0,0 km/h (0 Bft) 100,00 %
28/05/2018 00:01 20,1 C 88 % 1015,8 hPa 0,0 mm 0,0 km/h (0 Bft) O-NO 300 0 min 0 min 0,000 mm 0,0 UV-I 0 W/m 18,0 C 20,1 C 0,0 km/h (0 Bft) 96,15 %
28/05/2018 00:00 20,1 C 89 % 1015,8 hPa 0,0 mm 0,0 km/h (0 Bft) O-NO 300 0 min 0 min 0,000 mm 0,0 UV-I 0 W/m 18,2 C 20,1 C 0,0 km/h (0 Bft) 77,78 %
_ Min-Heure 04:52 00:01 00:52 - 00:00 - - - - - - - 04:52 04:52 00:00 00:00
Minimum _ 17,9 C 88 % 1015,5 hPa - 0,0 km/h (0 Bft) - - - - - - - 17,1 C 17,9 C 0,0 km/h (0 Bft) 77,78 %
_ Max-Heure 00:00 02:32 03:45 00:00 02:46 - - 00:00 00:00 00:00 00:00 00:00 00:00 00:00 00:32 00:02
Maximum _ 20,1 C 95 % 1016,2 hPa 0,0 mm 5,0 km/h
NE (1 Bft)
- - 0 min 0 min 0,000 mm 0,0 UV-I 0 W/m 18,2 C 20,1 C 12,4 km/h
SE (2 Bft)
100,00 %
Moyenne _ 18,6 C 94 % 1015,9 hPa #0,0 mm 0,6 km/h (0 Bft) O - #0 min. #0 min. #0,000 mm 0,0 UV-I 0 W/m 17,5 C 18,6 C 1,3 km/h (1 Bft) 98,65 %
Grandfresnoy - Oise - Picardie